Temp
81 81 81 81 80 81 80 80 81 81 81 80 80 80 80 80 79 79 78 77 77 76 77 77 77 77 77 77 77 78 78 78 77 77 76 76 77 76 76 76 76 75 76 76 76 76 77 77 77 78 78 78 78 77 77 78 77 78 78 78 78 78 77
80 81 81 81 81 81 81 81 81 81 82 81 80 80 81 80 79 79 78 78 77 77 77 77 77 77 77 77 78 77 77 77 78 78 77 76 76 76 77 76 76 75 75 76 76 76 77 77 78 77 77 78 78 78 78 78 78 78 77 77 77 77 77
80 81 81 81 81 81 80 81 81 82 82 83 82 81 81 79 80 79 78 78 77 77 78 77 77 77 77 77 77 77 78 78 78 78 77 77 77 78 77 76 76 76 76 76 76 76 77 77 77 78 78 78 78 78 78 78 78 78 77 77 77 77 77
80 81 82 82 82 82 82 82 82 83 84 84 83 82 81 80 81 80 80 79 78 77 77 77 78 78 78 77 77 77 77 77 78 78 79 78 77 78 76 76 76 77 76 76 77 77 78 77 77 77 78 77 77 78 78 78 78 78 78 77 77 77 77
80 81 82 82 82 82 82 81 82 82 83 85 84 82 82 82 82 81 81 80 80 79 79 79 80 79 79 78 78 78 78 78 78 78 79 79 78 77 77 77 77 77 77 77 76 76 76 76 77 77 77 77 78 77 77 78 78 78 78 77 77 77 77
80 80 81 82 82 83 83 83 83 84 84 84 84 83 83 83 83 82 82 80 80 81 80 79 79 79 78 79 79 79 78 78 78 78 78 78 77 77 77 77 77 77 78 77 77 77 77 77 77 77 77 78 78 78 78 78 78 78 78 77 77 77 77
81 81 81 82 83 83 84 84 84 84 85 86 86 85 84 84 83 83 83 81 81 79 80 79 80 79 78 79 78 78 77 78 78 78 79 79 78 77 77 77 78 78 78 77 77 77 77 77 77 77 77 78 77 78 77 77 77 78 78 77 77 77 77
81 81 82 83 84 84 85 84 84 85 85 85 85 84 84 84 84 83 82 82 82 81 81 80 80 79 78 79 79 78 78 78 79 79 78 78 78 78 78 78 78 78 77 77 77 77 78 77 78 77 77 78 77 77 78 77 77 78 78 77 77 77 77
83 82 83 84 84 85 85 85 84 84 83 83 84 83 84 83 83 83 83 83 82 81 81 82 81 81 79 79 78 78 79 79 78 78 78 78 78 79 79 78 78 78 77 78 79 78 78 78 78 77 77 77 77 77 77 77 77 78 77 77 77 77 77
81 81 82 84 85 86 85 85 84 82 81 81 82 82 82 83 83 83 83 83 83 82 82 82 82 81 80 79 79 79 79 78 78 79 79 78 79 79 79 80 79 79 78 79 79 78 78 78 78 78 77 77 77 77 77 77 77 77 78 77 77 77 77
81 80 81 82 83 83 83 83 81 80 81 80 81 83 82 83 83 83 83 83 83 83 83 83 82 82 81 80 80 79 78 79 79 78 78 79 80 79 80 80 80 79 79 79 79 79 78 78 78 77 77 77 77 77 77 77 77 77 78 78 78 78 78
78 79 79 80 81 82 81 81 81 80 79 80 82 83 81 81 83 84 83 83 84 83 83 83 83 82 81 81 80 78 78 79 79 79 79 79 80 80 80 81 80 80 80 80 79 79 79 78 78 78 77 77 78 78 78 77 77 77 78 78 78 78 78
78 79 79 80 80 81 80 78 79 79 79 82 83 83 83 83 83 84 82 82 84 84 83 83 82 81 81 81 80 79 79 79 78 79 79 79 79 80 80 80 81 81 80 80 80 80 80 80 78 78 78 78 78 78 78 78 78 77 77 78 78 78 78
78 79 80 80 80 79 78 78 79 79 79 81 83 83 83 84 84 83 82 82 83 84 84 83 82 81 80 80 79 78 79 79 79 79 78 79 78 79 80 80 80 80 80 80 79 80 80 80 79 79 79 79 79 79 79 78 78 78 78 78 78 78 78
76 78 79 79 78 78 78 78 77 78 80 81 82 82 82 83 83 82 82 83 83 84 84 83 82 81 81 80 78 78 78 78 79 79 78 79 78 78 79 79 79 79 79 79 80 80 81 81 81 80 79 79 79 79 79 79 79 79 79 78 78 78 78
77 78 79 79 79 79 78 79 78 78 79 79 80 80 82 82 81 82 83 83 83 83 84 82 81 80 80 80 78 78 78 78 78 78 78 78 77 77 78 79 79 80 79 79 79 79 79 79 79 80 80 79 79 79 79 79 79 75 68 71 78 78 79
76 78 78 79 78 79 79 79 78 78 77 78 79 80 81 81 82 83 84 84 84 83 84 84 81 81 80 79 79 79 78 78 78 78 77 77 77 77 77 78 78 78 78 78 78 78 78 79 79 80 80 80 80 79 79 79 79 69 65 65 67 77 79
76 76 77 78 79 79 79 79 78 77 78 80 81 81 82 81 82 83 83 84 84 85 85 84 82 81 79 79 79 78 78 78 78 77 77 77 77 77 77 78 77 77 77 77 78 77 79 78 78 78 80 80 80 80 80 80 71 67 65 65 64 68 78
76 77 78 78 78 78 79 80 79 79 80 81 82 82 83 83 83 82 83 83 84 85 84 84 83 80 79 79 79 78 78 78 78 77 77 77 77 77 77 77 77 77 77 77 78 79 77 77 78 78 79 79 79 80 81 81 70 66 64 64 64 64 70
75 77 79 79 80 80 80 80 80 81 81 81 83 85 85 84 84 84 85 85 84 84 82 81 81 80 80 79 79 78 78 78 78 77 77 78 78 77 77 77 77 78 79 79 78 77 78 78 78 78 78 78 78 78 80 80 71 65 63 63 62 63 66
70 74 76 77 78 80 79 79 80 80 80 82 83 83 84 83 84 82 83 84 83 83 81 81 81 80 79 79 79 79 79 78 78 78 78 78 78 77 77 77 77 77 79 79 79 78 77 78 78 78 78 79 80 79 80 82 70 64 62 61 60 61 63
71 74 76 77 78 77 77 80 80 81 80 82 83 83 84 84 84 85 85 85 83 83 82 81 80 80 80 79 79 79 79 79 78 78 78 78 78 77 77 77 77 77 78 78 79 79 80 79 80 79 79 79 80 79 79 82 68 64 62 60 59 60 68
70 73 75 74 77 76 76 79 79 80 79 80 83 83 84 84 85 84 84 84 83 82 82 81 79 79 79 79 80 80 80 80 80 79 78 78 78 77 77 77 77 78 79 78 79 79 79 79 80 79 80 79 79 79 79 81 72 62 60 59 58 60 71
72 72 75 74 73 74 75 75 77 79 81 80 81 82 82 84 84 83 81 82 82 82 82 81 80 80 79 80 80 80 81 80 80 79 79 78 78 78 79 79 79 79 79 79 79 79 80 80 80 80 80 80 80 80 79 80 74 62 59 58 57 63 73
73 72 74 76 77 76 77 77 78 79 79 79 79 79 81 83 83 83 80 81 82 82 81 80 81 81 80 81 81 81 81 81 81 80 80 78 79 79 79 79 79 80 80 80 80 80 80 80 80 80 80 82 82 75 78 81 76 62 59 58 56 63 74
71 72 73 74 76 77 76 77 78 78 79 80 79 80 82 83 82 81 80 81 83 82 81 81 81 82 83 83 82 82 82 82 80 80 80 79 79 80 80 80 81 81 80 80 81 80 81 81 80 80 81 82 82 82 80 80 81 74 58 57 55 58 73
74 73 73 74 74 76 75 76 77 77 78 77 77 81 83 83 82 80 79 79 79 80 81 81 81 81 82 82 83 83 82 83 82 81 81 81 80 81 81 82 81 81 80 80 81 80 79 80 80 81 80 82 82 82 82 82 81 78 58 56 55 56 62
74 74 75 75 76 75 74 74 73 74 74 75 77 79 79 79 77 76 76 76 75 74 75 75 77 80 81 81 82 83 83 83 82 82 82 81 81 80 80 81 82 81 81 81 80 78 78 79 79 80 80 81 80 80 80 80 74 82 62 57 55 55 55
69 70 71 72 72 74 75 73 73 73 74 76 77 78 78 78 75 75 75 74 74 75 75 76 75 76 79 80 81 81 82 82 82 81 83 82 81 80 80 80 80 80 80 79 78 78 78 77 78 78 78 78 78 79 79 79 78 68 73 57 55 54 54
69 70 71 73 73 73 73 72 72 72 73 74 75 76 77 77 75 75 74 73 74 75 77 76 75 74 76 78 80 81 82 83 83 83 83 82 81 81 80 80 80 79 79 79 78 78 77 77 77 77 78 78 78 79 80 79 80 70 65 67 55 54 53
67 68 69 69 71 72 72 71 71 71 71 72 72 74 75 76 75 74 73 73 75 75 76 75 74 73 74 76 77 78 81 81 82 82 82 82 82 80 80 80 80 78 78 78 78 78 77 77 77 76 77 77 77 78 78 79 78 80 69 62 58 55 54
67 68 68 69 69 71 71 72 71 71 70 71 72 72 73 73 74 73 72 73 75 75 76 76 76 75 74 73 74 76 78 78 80 80 81 82 82 82 81 81 80 79 78 78 78 77 77 77 77 77 77 77 78 78 78 77 77 78 77 67 65 60 55
64 65 66 66 67 69 70 71 70 70 70 69 71 72 72 72 72 72 72 73 73 75 76 76 76 76 75 74 73 73 75 77 77 78 80 80 82 83 82 81 80 79 78 78 79 78 78 77 77 76 77 76 77 78 77 77 77 77 77 75 73 72 68
63 64 65 66 67 68 69 69 68 69 69 68 69 70 71 71 71 71 72 73 73 74 75 75 75 74 74 74 74 73 74 75 78 78 78 79 80 81 81 81 81 80 78 78 78 78 77 77 76 76 77 77 78 77 77 77 77 77 77 75 74 74 73
62 63 64 65 67 68 66 67 68 67 68 68 68 69 69 69 70 71 71 72 72 73 74 74 75 74 74 74 74 74 75 75 76 77 77 76 72 64 62 68 74 78 79 78 78 81 81 79 78 78 79 79 78 77 76 77 76 76 67 76 65 72 74
62 63 64 66 67 67 66 67 67 67 67 67 67 68 68 68 69 69 71 71 72 73 73 73 73 73 73 73 73 73 75 75 76 76 75 73 68 65 60 51 44 48 66 73 59 56 59 64 78 80 80 79 78 76 78 78 79 67 58 58 56 56 59
62 62 63 65 65 65 66 66 67 67 67 66 67 67 68 68 68 69 69 70 71 72 72 72 72 72 72 72 72 72 74 75 74 73 71 71 69 68 65 63 59 45 43 49 52 49 47 52 54 57 65 76 75 58 50 53 54 54 54 53 52 52 52
63 62 63 64 64 64 65 65 66 65 66 66 66 66 67 68 68 68 69 69 70 71 71 72 72 71 71 71 72 72 72 72 72 71 70 69 69 68 68 68 66 64 49 43 45 46 42 41 45 52 56 58 65 64 63 50 46 46 47 47 47 46 45
MSLP
1003.99 1004.51 1004.79 1004.91 1005.43 1005.67 1005.83 1005.99 1006.15 1006.59 1006.95 1007.43 1007.91 1008.35 1008.87 1009.23 1009.59 1010.07 1010.55 1010.91 1011.31 1011.79 1011.95 1012.23 1012.55 1012.87 1013.27 1013.55 1013.79 1014.07 1014.35 1014.75 1015.11 1015.51 1015.87 1016.11 1016.27 1016.59 1016.99 1017.15 1017.43 1017.59 1017.71 1017.99 1018.07 1018.11 1018.07 1018.23 1018.43 1018.55 1018.71 1018.87 1019.03 1019.11 1019.19 1019.31 1019.47 1019.59 1019.71 1019.83 1019.99 1020.19 1020.31
1004.39 1004.35 1004.43 1004.63 1005.07 1005.19 1005.11 1005.23 1005.67 1006.15 1006.63 1006.99 1007.43 1007.83 1008.23 1008.67 1009.07 1009.55 1009.87 1010.23 1010.67 1011.07 1011.47 1011.83 1012.23 1012.51 1012.79 1013.11 1013.39 1013.75 1014.19 1014.47 1014.75 1015.03 1015.39 1015.79 1015.99 1016.23 1016.39 1016.75 1017.03 1017.27 1017.39 1017.43 1017.59 1017.75 1017.95 1018.03 1018.15 1018.39 1018.59 1018.71 1018.83 1018.87 1019.03 1019.15 1019.23 1019.43 1019.63 1019.75 1019.95 1020.11 1020.19
1003.39 1003.59 1003.83 1004.15 1004.51 1004.59 1004.71 1004.95 1005.35 1005.55 1005.87 1006.31 1006.75 1007.19 1007.43 1007.79 1008.15 1008.71 1009.43 1009.99 1010.47 1010.79 1011.07 1011.43 1011.71 1012.07 1012.39 1012.75 1013.23 1013.51 1013.79 1014.15 1014.51 1014.83 1015.23 1015.47 1015.67 1015.79 1016.03 1016.35 1016.63 1016.91 1016.99 1017.15 1017.35 1017.55 1017.63 1017.91 1017.95 1018.11 1018.27 1018.51 1018.59 1018.75 1018.83 1018.99 1019.03 1019.15 1019.35 1019.55 1019.75 1019.91 1020.07
1002.55 1002.79 1002.91 1002.95 1003.19 1003.35 1003.75 1004.19 1004.47 1004.71 1004.99 1005.27 1005.63 1006.03 1006.67 1007.27 1007.63 1008.23 1008.71 1009.23 1009.99 1010.47 1010.91 1011.11 1011.39 1011.79 1012.11 1012.55 1012.95 1013.27 1013.59 1013.83 1014.07 1014.35 1014.63 1014.87 1015.27 1015.51 1015.91 1016.19 1016.39 1016.59 1016.95 1017.07 1017.03 1017.19 1017.35 1017.55 1017.83 1017.95 1018.07 1018.27 1018.39 1018.47 1018.63 1018.71 1018.79 1018.91 1019.07 1019.31 1019.55 1019.59 1019.71
1001.67 1001.83 1002.27 1002.71 1002.99 1003.23 1003.67 1004.03 1004.31 1004.59 1004.71 1004.67 1004.95 1005.47 1005.99 1006.59 1007.31 1007.87 1008.39 1008.71 1009.15 1009.75 1009.99 1010.47 1010.87 1011.31 1011.71 1012.07 1012.43 1012.79 1013.15 1013.51 1013.83 1014.03 1014.27 1014.51 1014.83 1015.23 1015.63 1015.91 1016.07 1016.31 1016.39 1016.67 1016.87 1017.07 1017.27 1017.47 1017.63 1017.75 1017.87 1017.95 1018.15 1018.27 1018.39 1018.47 1018.59 1018.63 1018.83 1018.99 1019.35 1019.43 1019.59
1001.51 1001.87 1002.11 1002.23 1002.35 1002.47 1002.79 1003.03 1003.23 1003.59 1003.95 1004.39 1004.67 1005.11 1005.55 1006.19 1006.75 1007.39 1007.79 1008.39 1008.91 1009.23 1009.67 1010.15 1010.59 1010.91 1011.43 1011.71 1012.11 1012.51 1012.83 1013.15 1013.35 1013.63 1013.95 1014.23 1014.63 1015.07 1015.27 1015.39 1015.63 1015.91 1016.23 1016.39 1016.55 1016.75 1016.91 1017.15 1017.31 1017.43 1017.63 1017.71 1017.83 1018.03 1018.11 1018.31 1018.35 1018.43 1018.59 1018.83 1018.99 1019.15 1019.39
1000.75 1001.03 1001.31 1001.43 1001.47 1001.71 1001.95 1002.19 1002.47 1002.75 1002.99 1003.35 1003.87 1004.67 1005.47 1006.03 1006.43 1006.79 1007.35 1007.95 1008.31 1008.99 1009.43 1009.83 1010.11 1010.55 1011.03 1011.39 1011.83 1012.23 1012.67 1012.91 1013.19 1013.47 1013.67 1014.03 1014.31 1014.63 1014.79 1015.03 1015.27 1015.51 1015.67 1015.99 1016.35 1016.43 1016.75 1016.91 1016.99 1017.11 1017.23 1017.43 1017.59 1017.75 1017.87 1018.03 1018.19 1018.23 1018.43 1018.67 1018.83 1018.87 1018.99
999.87 1000.43 1000.39 1000.39 1000.63 1000.91 1001.15 1001.39 1001.63 1001.95 1002.47 1003.15 1004.07 1004.71 1005.15 1005.27 1005.83 1006.47 1006.83 1007.07 1007.67 1008.31 1008.87 1009.31 1009.79 1010.15 1010.55 1010.95 1011.35 1011.79 1012.19 1012.51 1012.75 1013.07 1013.43 1013.83 1014.03 1014.31 1014.51 1014.75 1014.99 1015.15 1015.51 1015.83 1015.87 1016.07 1016.35 1016.55 1016.63 1016.79 1016.95 1017.19 1017.35 1017.43 1017.55 1017.71 1017.87 1017.99 1018.23 1018.47 1018.63 1018.71 1018.75
999.03 999.19 999.55 999.67 999.91 1000.19 1000.43 1000.75 1001.11 1001.67 1002.39 1002.95 1003.31 1003.67 1004.11 1004.71 1005.23 1005.59 1006.07 1006.71 1007.23 1007.79 1008.23 1008.47 1008.95 1009.39 1009.95 1010.51 1010.99 1011.43 1011.71 1012.11 1012.51 1012.79 1013.15 1013.51 1013.71 1013.99 1014.15 1014.39 1014.67 1014.87 1015.27 1015.43 1015.59 1015.71 1015.91 1016.15 1016.31 1016.51 1016.67 1016.87 1017.03 1017.19 1017.35 1017.43 1017.59 1017.71 1017.95 1018.15 1018.31 1018.51 1018.59
998.95 999.11 999.07 999.03 999.15 999.43 999.75 1000.11 1000.79 1001.75 1002.55 1002.95 1003.19 1003.67 1004.11 1004.35 1004.71 1005.23 1005.75 1006.11 1006.67 1007.31 1007.67 1008.15 1008.55 1009.03 1009.63 1010.15 1010.63 1010.95 1011.43 1011.83 1012.11 1012.51 1012.79 1013.15 1013.27 1013.55 1013.71 1013.95 1014.31 1014.51 1014.79 1014.99 1015.15 1015.47 1015.55 1015.71 1015.95 1016.19 1016.43 1016.63 1016.79 1016.91 1017.03 1017.15 1017.27 1017.43 1017.55 1017.75 1017.95 1018.15 1018.27
998.63 998.59 998.63 998.83 999.11 999.31 999.67 1000.39 1001.19 1001.67 1001.95 1002.35 1002.63 1002.95 1003.39 1003.91 1004.43 1004.83 1005.23 1005.67 1006.19 1006.63 1007.07 1007.63 1008.03 1008.67 1009.19 1009.71 1010.31 1010.71 1011.15 1011.51 1011.79 1012.15 1012.43 1012.67 1012.87 1013.15 1013.31 1013.59 1013.87 1014.11 1014.39 1014.63 1014.91 1014.99 1015.27 1015.51 1015.59 1015.87 1016.11 1016.31 1016.43 1016.55 1016.71 1016.75 1016.87 1017.15 1017.27 1017.35 1017.47 1017.67 1017.83
998.55 998.51 998.67 998.71 998.83 999.19 999.87 1000.15 1000.43 1000.95 1001.39 1001.79 1002.07 1002.43 1002.95 1003.39 1003.79 1004.23 1004.71 1005.11 1005.39 1006.23 1006.83 1007.27 1007.67 1008.15 1008.75 1009.27 1009.91 1010.39 1010.79 1011.11 1011.43 1011.75 1011.99 1012.27 1012.47 1012.71 1012.95 1013.19 1013.47 1013.71 1013.95 1014.15 1014.51 1014.67 1014.83 1015.11 1015.31 1015.47 1015.71 1015.75 1015.87 1016.03 1016.19 1016.31 1016.51 1016.71 1016.87 1017.03 1017.15 1017.31 1017.43
998.27 998.19 998.27 998.35 998.55 998.83 999.23 999.95 1000.31 1000.43 1000.75 1001.07 1001.39 1001.79 1002.31 1002.87 1003.35 1003.79 1004.35 1004.87 1005.19 1005.59 1006.19 1006.75 1007.31 1007.87 1008.43 1008.87 1009.39 1009.91 1010.31 1010.63 1010.91 1011.15 1011.51 1011.79 1012.03 1012.23 1012.55 1012.79 1012.99 1013.27 1013.55 1013.67 1013.95 1014.27 1014.51 1014.63 1014.91 1014.99 1015.15 1015.27 1015.43 1015.63 1015.79 1015.99 1016.15 1016.35 1016.55 1016.67 1016.79 1016.91 1017.11
998.07 998.03 997.67 997.79 998.27 998.79 999.35 999.51 999.71 1000.11 1000.43 1000.75 1001.15 1001.47 1001.99 1002.35 1002.71 1003.19 1003.79 1004.47 1004.87 1005.35 1005.91 1006.39 1006.91 1007.51 1008.03 1008.47 1009.03 1009.43 1009.75 1009.99 1010.23 1010.59 1010.91 1011.15 1011.47 1011.79 1011.99 1012.27 1012.55 1012.79 1012.95 1013.23 1013.63 1013.79 1013.99 1014.23 1014.43 1014.55 1014.71 1014.83 1015.03 1015.15 1015.39 1015.63 1015.83 1015.95 1016.07 1016.23 1016.35 1016.51 1016.67
997.95 997.79 997.71 997.87 998.03 998.31 998.63 999.15 999.51 999.75 1000.07 1000.35 1000.75 1001.39 1001.79 1002.27 1002.75 1003.23 1003.75 1004.15 1004.63 1004.99 1005.43 1005.75 1006.47 1007.11 1007.59 1008.11 1008.63 1008.91 1009.11 1009.47 1009.83 1010.15 1010.55 1010.87 1011.19 1011.47 1011.71 1011.91 1012.11 1012.35 1012.59 1012.87 1013.11 1013.27 1013.43 1013.63 1013.91 1014.27 1014.47 1014.55 1014.71 1014.87 1015.03 1015.27 1015.35 1015.39 1015.55 1015.79 1015.95 1016.03 1016.31
997.39 997.15 997.23 997.47 997.59 997.71 997.99 998.23 998.71 999.15 999.59 1000.15 1000.63 1001.07 1001.55 1002.07 1002.47 1002.79 1003.23 1003.71 1004.07 1004.51 1004.83 1005.43 1006.15 1006.75 1007.27 1007.75 1008.03 1008.35 1008.71 1009.11 1009.51 1009.87 1010.23 1010.67 1010.95 1011.15 1011.31 1011.51 1011.75 1011.99 1012.31 1012.51 1012.67 1012.87 1013.11 1013.39 1013.55 1013.79 1014.07 1014.31 1014.43 1014.55 1014.71 1014.83 1014.71 1014.71 1014.87 1015.03 1015.31 1015.67 1015.87
996.83 996.71 996.79 996.87 996.99 997.23 997.47 997.83 998.35 998.95 999.55 999.99 1000.27 1000.59 1000.99 1001.35 1001.67 1002.11 1002.67 1003.19 1003.67 1004.07 1004.35 1004.83 1005.67 1006.27 1006.75 1007.23 1007.43 1007.91 1008.35 1008.87 1009.23 1009.55 1010.03 1010.19 1010.47 1010.75 1010.99 1011.19 1011.39 1011.71 1011.95 1012.11 1012.31 1012.59 1012.79 1013.03 1013.31 1013.47 1013.51 1013.75 1013.99 1014.23 1014.31 1014.31 1014.15 1014.23 1014.51 1014.75 1014.95 1015.19 1015.51
996.39 996.27 996.47 996.67 996.71 996.87 997.31 997.75 998.35 998.87 999.23 999.51 999.75 1000.11 1000.51 1001.07 1001.51 1002.07 1002.55 1002.75 1003.19 1003.51 1003.91 1004.63 1005.27 1005.87 1006.35 1006.63 1007.15 1007.63 1008.11 1008.47 1008.87 1009.31 1009.59 1009.87 1010.15 1010.31 1010.59 1010.87 1011.19 1011.43 1011.59 1011.83 1012.07 1012.19 1012.35 1012.67 1012.79 1012.91 1013.07 1013.23 1013.43 1013.63 1013.71 1013.71 1013.59 1013.87 1014.11 1014.35 1014.63 1014.87 1014.99
995.95 995.79 995.91 996.11 996.43 996.67 996.91 997.27 997.63 997.99 998.31 998.79 999.23 999.67 999.83 1000.15 1000.95 1001.51 1001.67 1002.19 1002.51 1003.03 1003.71 1004.27 1004.83 1005.47 1006.03 1006.35 1006.79 1007.23 1007.63 1008.07 1008.55 1008.91 1009.23 1009.43 1009.63 1009.91 1010.23 1010.55 1010.87 1011.11 1011.35 1011.55 1011.47 1011.71 1012.03 1012.11 1012.31 1012.51 1012.59 1012.79 1013.03 1013.11 1013.07 1013.11 1013.03 1013.39 1013.63 1013.87 1014.19 1014.47 1014.75
995.83 995.67 995.51 995.59 995.63 995.95 996.23 996.59 996.95 997.27 997.51 997.83 998.15 998.39 998.87 999.47 999.95 1000.43 1000.95 1001.71 1002.39 1002.91 1003.43 1004.11 1004.67 1005.15 1005.67 1006.11 1006.51 1006.87 1007.27 1007.67 1008.11 1008.47 1008.67 1008.91 1009.19 1009.51 1009.83 1010.19 1010.43 1010.47 1010.59 1010.87 1011.11 1011.43 1011.59 1011.67 1011.87 1011.99 1012.19 1012.31 1012.47 1012.55 1012.51 1012.55 1012.47 1012.83 1013.11 1013.39 1013.71 1014.07 1014.43
995.71 995.51 995.83 995.79 995.83 995.79 995.99 996.19 996.59 997.11 997.63 997.91 998.07 998.55 999.19 999.87 1000.31 1000.99 1001.47 1001.75 1002.31 1002.67 1003.31 1003.79 1004.35 1004.95 1005.35 1005.83 1006.15 1006.51 1006.87 1007.27 1007.63 1007.99 1008.23 1008.47 1008.79 1009.11 1009.43 1009.67 1009.87 1010.11 1010.19 1010.43 1010.67 1010.95 1011.11 1011.23 1011.47 1011.51 1011.63 1011.75 1011.83 1012.07 1012.11 1011.83 1011.91 1012.31 1012.55 1012.91 1013.27 1013.67 1014.03
995.15 995.27 995.47 995.59 995.59 995.63 995.87 996.19 996.47 996.79 997.11 997.27 998.07 998.63 998.95 999.59 999.91 1000.51 1001.07 1001.27 1001.95 1002.51 1002.99 1003.55 1004.11 1004.55 1004.91 1005.39 1005.67 1005.99 1006.31 1006.75 1007.19 1007.51 1007.79 1008.07 1008.43 1008.79 1009.07 1009.23 1009.39 1009.63 1009.71 1009.99 1010.11 1010.19 1010.39 1010.63 1010.75 1010.99 1011.11 1011.19 1011.43 1011.67 1011.67 1011.23 1011.43 1011.79 1012.07 1012.43 1012.91 1013.39 1013.75
995.67 994.75 994.99 995.19 995.43 995.75 995.59 995.67 996.11 996.51 996.99 997.43 997.75 998.31 998.87 999.27 999.75 1000.39 1001.03 1001.59 1001.99 1002.39 1002.87 1003.35 1003.91 1004.23 1004.55 1004.95 1005.19 1005.51 1005.79 1006.15 1006.59 1006.95 1007.27 1007.59 1008.03 1008.39 1008.59 1008.79 1008.95 1009.07 1009.15 1009.63 1009.71 1009.91 1010.03 1010.15 1010.23 1010.31 1010.59 1010.83 1010.99 1011.15 1010.99 1010.91 1010.95 1011.27 1011.59 1012.03 1012.51 1013.15 1013.27
995.75 995.19 994.63 995.03 995.31 995.59 995.79 995.99 996.31 996.63 996.99 997.59 997.95 998.19 998.55 998.95 999.55 1000.23 1000.95 1001.51 1001.87 1002.35 1002.79 1003.19 1003.55 1003.71 1004.11 1004.43 1004.59 1004.87 1005.15 1005.51 1005.87 1006.35 1006.75 1007.15 1007.59 1007.75 1007.83 1007.83 1007.99 1008.31 1008.47 1008.99 1009.27 1009.47 1009.39 1009.55 1009.79 1009.83 1009.95 1010.23 1010.35 1010.31 1010.63 1010.51 1010.47 1010.83 1011.15 1011.59 1012.07 1012.35 1012.67
996.23 995.87 995.47 994.87 994.99 995.67 995.87 996.07 996.23 996.67 997.11 997.67 998.35 998.43 998.47 998.87 999.43 1000.19 1000.91 1001.27 1001.63 1001.99 1002.51 1002.79 1002.99 1003.27 1003.63 1003.75 1003.87 1004.15 1004.47 1004.83 1005.27 1005.71 1006.15 1006.63 1006.79 1006.87 1007.19 1007.39 1007.51 1007.51 1007.83 1008.23 1008.51 1008.71 1008.79 1009.07 1009.35 1009.47 1009.55 1009.51 1009.67 1009.83 1010.11 1010.03 1010.07 1010.35 1010.71 1011.11 1011.55 1011.95 1012.03
997.11 996.59 996.23 995.83 995.47 995.35 995.75 995.99 996.39 996.99 997.39 997.71 997.99 998.03 998.39 998.83 999.47 1000.15 1000.79 1001.15 1001.39 1001.95 1002.23 1002.27 1002.31 1002.39 1002.59 1002.91 1003.27 1003.59 1003.99 1004.35 1004.83 1005.15 1005.59 1005.95 1006.07 1006.27 1006.47 1006.55 1006.95 1007.35 1007.71 1007.87 1007.99 1008.27 1008.43 1008.63 1008.87 1009.15 1009.11 1009.03 1009.27 1009.35 1009.43 1009.63 1009.63 1009.83 1010.23 1010.59 1011.03 1011.31 1011.43
997.51 997.11 997.07 996.79 996.67 996.23 996.31 996.47 996.55 996.95 997.15 997.35 997.59 997.83 998.11 998.59 999.39 1000.15 1000.55 1000.95 1001.43 1001.75 1001.71 1001.71 1001.91 1002.19 1002.35 1002.63 1002.99 1003.43 1003.79 1004.03 1004.35 1004.75 1004.91 1005.03 1005.31 1005.51 1005.79 1006.15 1006.51 1006.79 1007.23 1007.51 1007.63 1007.91 1008.19 1008.43 1008.51 1008.67 1008.71 1008.67 1008.71 1008.83 1008.83 1008.91 1009.23 1009.35 1009.71 1010.11 1010.43 1010.79 1011.07
998.11 997.71 997.39 997.23 997.07 997.15 997.27 997.35 997.51 997.63 997.79 997.79 997.79 997.91 998.27 998.75 999.63 1000.27 1000.63 1001.03 1001.47 1001.59 1001.47 1001.51 1001.63 1001.87 1002.19 1002.55 1002.79 1003.07 1003.35 1003.67 1003.87 1004.11 1004.43 1004.59 1004.99 1005.59 1005.83 1005.75 1005.87 1006.23 1006.59 1006.91 1007.31 1007.71 1007.95 1008.07 1008.23 1008.39 1008.43 1008.35 1008.35 1008.43 1008.43 1008.39 1008.67 1008.91 1009.27 1009.59 1009.91 1010.23 1010.47
999.47 999.15 998.87 998.51 998.23 998.03 997.83 998.11 998.23 998.31 998.27 998.11 997.99 998.15 998.47 998.95 999.95 1000.51 1000.79 1001.27 1001.51 1001.39 1001.35 1001.39 1001.51 1001.75 1001.99 1002.27 1002.59 1002.75 1002.99 1003.23 1003.51 1003.83 1003.95 1004.31 1004.51 1004.95 1005.31 1005.35 1005.67 1005.91 1006.23 1006.67 1007.03 1007.39 1007.71 1007.83 1007.99 1008.23 1008.31 1008.27 1008.19 1008.07 1008.07 1008.07 1008.23 1008.43 1008.71 1009.03 1009.31 1009.59 1009.95
999.99 999.75 999.55 999.11 998.95 998.95 998.59 998.75 998.87 998.91 998.83 998.59 998.55 998.59 998.71 999.07 1000.15 1000.59 1000.95 1001.47 1001.27 1001.19 1001.19 1001.31 1001.43 1001.59 1001.91 1002.19 1002.31 1002.51 1002.67 1002.79 1002.99 1003.19 1003.39 1003.63 1003.99 1004.39 1004.79 1005.11 1005.31 1005.59 1005.91 1006.19 1006.63 1007.07 1007.39 1007.55 1007.71 1007.99 1008.19 1008.23 1008.11 1007.87 1007.71 1007.71 1007.79 1007.99 1008.15 1008.43 1008.83 1009.07 1009.31
1001.15 1000.87 1000.55 1000.27 999.87 999.51 999.39 999.51 999.67 999.59 999.51 999.31 999.23 999.23 999.35 999.43 1000.03 1000.63 1001.19 1001.39 1001.07 1001.19 1001.23 1001.23 1001.39 1001.67 1001.91 1002.07 1002.19 1002.27 1002.27 1002.39 1002.59 1002.71 1002.91 1003.11 1003.51 1004.15 1004.43 1004.71 1004.95 1005.51 1005.55 1005.91 1006.31 1006.59 1006.99 1007.07 1007.23 1007.55 1007.67 1007.79 1007.83 1007.67 1007.59 1007.51 1007.59 1007.63 1007.79 1007.99 1008.27 1008.59 1008.91
1001.43 1001.23 1001.03 1000.75 1000.47 1000.23 1000.19 1000.07 1000.07 1000.19 1000.27 1000.07 999.79 999.83 999.87 1000.03 1000.03 1000.71 1001.35 1001.11 1001.11 1000.99 1001.03 1001.23 1001.51 1001.71 1001.87 1001.95 1002.15 1002.23 1002.27 1002.55 1002.55 1002.55 1002.59 1002.79 1002.99 1003.31 1003.59 1003.99 1004.47 1004.87 1005.11 1005.47 1005.75 1006.03 1006.39 1006.63 1006.83 1007.07 1007.27 1007.47 1007.39 1007.47 1007.35 1007.35 1007.47 1007.51 1007.55 1007.79 1007.99 1008.31 1008.59
1002.51 1002.31 1002.07 1001.79 1001.43 1001.03 1000.83 1000.75 1000.87 1000.99 1000.79 1000.67 1000.47 1000.31 1000.39 1000.47 1000.63 1000.95 1001.11 1001.15 1000.95 1000.87 1000.83 1000.99 1001.19 1001.63 1001.87 1001.95 1001.91 1002.03 1002.19 1002.39 1002.51 1002.59 1002.59 1002.67 1002.75 1002.91 1003.19 1003.51 1003.95 1004.35 1004.79 1005.03 1005.31 1005.67 1005.91 1006.19 1006.47 1006.75 1006.99 1007.15 1007.19 1007.11 1007.07 1007.15 1007.23 1007.31 1007.39 1007.51 1007.79 1007.99 1008.19
1003.23 1002.87 1002.47 1002.19 1001.87 1001.55 1001.35 1001.39 1001.63 1001.59 1001.35 1001.23 1001.03 1000.83 1000.83 1000.91 1001.11 1001.11 1000.95 1000.87 1000.79 1000.79 1000.83 1001.07 1001.19 1001.31 1001.55 1001.75 1001.79 1001.79 1001.91 1002.11 1002.15 1002.31 1002.47 1002.47 1002.59 1002.87 1003.11 1003.27 1003.39 1003.83 1004.23 1004.47 1004.75 1005.15 1005.51 1005.67 1005.99 1006.19 1006.35 1006.63 1006.59 1006.71 1006.87 1007.03 1006.99 1007.07 1007.15 1007.19 1007.27 1007.43 1007.67
1003.75 1003.55 1003.19 1002.87 1002.51 1002.19 1002.19 1002.07 1002.03 1002.03 1001.83 1001.67 1001.35 1001.11 1001.07 1001.15 1001.15 1000.99 1000.83 1000.79 1000.71 1000.71 1000.95 1001.31 1001.43 1001.47 1001.47 1001.51 1001.63 1001.71 1001.71 1001.75 1001.91 1001.99 1002.23 1002.43 1002.63 1003.07 1003.51 1003.55 1003.31 1003.43 1003.51 1003.51 1003.63 1003.99 1004.47 1004.99 1005.19 1005.23 1005.35 1005.59 1005.99 1006.43 1006.75 1006.75 1006.91 1006.43 1005.87 1006.07 1006.39 1006.79 1007.31
1004.27 1004.03 1003.63 1003.23 1002.87 1002.71 1002.51 1002.39 1002.23 1002.07 1002.03 1001.79 1001.47 1001.23 1001.19 1001.23 1001.23 1001.19 1001.11 1000.99 1000.95 1000.87 1001.15 1001.43 1001.63 1001.75 1001.87 1001.79 1001.79 1001.75 1001.71 1001.75 1001.83 1001.91 1002.11 1002.43 1002.87 1003.43 1004.11 1005.07 1004.87 1004.43 1003.95 1003.83 1004.07 1004.15 1004.03 1004.11 1004.43 1004.47 1004.71 1005.19 1005.23 1005.31 1005.79 1005.99 1005.55 1005.39 1005.87 1006.11 1006.35 1006.59 1006.71
1004.55 1004.43 1004.19 1003.79 1003.47 1003.11 1002.99 1002.75 1002.55 1002.23 1002.07 1001.95 1001.63 1001.47 1001.43 1001.47 1001.51 1001.47 1001.43 1001.27 1001.11 1001.03 1001.23 1001.35 1001.67 1001.91 1001.99 1001.91 1001.79 1001.79 1001.83 1001.79 1001.95 1002.11 1002.31 1002.63 1003.03 1003.43 1003.79 1004.23 1004.51 1004.79 1004.83 1004.55 1004.47 1004.35 1004.31 1004.35 1004.35 1004.31 1004.23 1004.51 1005.07 1005.51 1005.59 1005.47 1005.39 1005.39 1005.55 1005.91 1006.15 1006.43 1006.71
1004.31 1004.47 1004.35 1003.99 1003.75 1003.59 1003.27 1003.07 1002.87 1002.75 1002.55 1002.23 1002.03 1001.95 1001.95 1001.91 1001.91 1001.83 1001.75 1001.67 1001.51 1001.35 1001.31 1001.27 1001.39 1001.67 1001.75 1001.71 1001.67 1001.63 1001.75 1001.87 1002.03 1002.35 1002.67 1002.99 1003.15 1003.43 1003.67 1003.95 1004.23 1004.55 1004.87 1004.95 1004.59 1004.47 1004.47 1004.47 1004.39 1004.31 1004.27 1004.23 1004.31 1004.87 1005.59 1005.87 1005.79 1005.71 1005.87 1006.11 1006.35 1006.63 1006.95
Wind_Speed
19 18 17 16 16 17 18 19 20 18 18 17 17 19 18 17 17 16 16 17 19 18 17 16 16 15 16 15 15 13 13 12 11 11 10 10 10 9 9 8 9 8 8 8 8 9 8 7 9 8 7 8 7 7 7 6 6 5 6 6 5 5 5
14 16 16 15 15 17 18 18 17 16 15 16 16 18 18 19 17 17 17 18 19 19 18 17 16 15 16 15 13 14 13 13 13 11 10 8 8 8 9 9 9 9 9 8 7 7 6 8 8 9 9 7 8 7 6 6 7 6 6 6 6 5 5
16 16 16 15 16 16 18 16 16 17 17 16 17 18 20 20 19 19 17 17 18 18 17 18 17 16 15 14 14 14 14 13 12 12 12 12 12 11 9 8 8 8 8 7 6 7 6 7 8 8 8 8 7 7 7 7 7 6 6 6 6 5 6
16 17 18 20 20 19 19 18 20 19 18 19 20 21 20 20 18 17 17 18 19 18 18 17 17 16 15 15 15 14 14 14 13 13 13 12 12 10 8 8 8 7 6 9 8 7 6 8 8 8 9 9 8 7 7 8 7 7 6 6 6 6 6
17 17 17 17 18 17 15 15 16 16 18 20 19 18 19 18 18 16 16 17 19 20 20 19 16 15 13 14 12 12 13 14 13 12 12 11 10 9 10 10 10 10 9 7 7 7 8 8 8 8 9 9 8 7 8 7 7 7 6 6 6 6 6
15 15 15 17 18 18 17 18 20 21 21 20 20 19 19 19 17 19 18 17 17 17 16 16 17 16 15 14 12 12 11 12 13 13 12 11 11 10 12 12 11 10 9 9 7 8 9 9 9 9 9 7 7 8 7 7 7 7 7 6 6 5 6
14 16 16 17 18 18 20 20 20 20 20 20 18 14 14 16 19 19 17 18 18 19 18 18 17 16 14 13 13 13 14 14 13 13 12 11 12 12 12 10 10 10 9 7 8 8 9 9 10 10 10 10 9 9 9 9 8 7 6 6 7 6 6
14 15 17 18 18 18 19 20 20 19 18 15 14 15 18 18 17 18 20 19 18 18 17 18 17 15 15 13 13 15 14 14 13 12 11 12 12 12 11 10 10 9 8 10 9 9 9 10 9 9 10 9 10 10 10 9 9 7 6 7 7 7 5
16 16 17 18 18 18 18 18 18 17 18 19 21 21 21 19 19 19 20 18 17 18 19 18 18 16 15 14 14 15 14 13 13 12 14 14 12 11 11 9 10 8 10 10 9 9 9 10 10 10 10 10 9 10 9 10 9 8 8 8 9 8 7
14 13 14 16 16 16 17 17 15 13 15 16 16 16 17 18 17 17 17 18 17 19 19 18 16 15 15 14 15 15 14 13 13 13 13 12 12 12 12 10 9 9 10 10 7 9 8 9 10 9 10 10 10 10 10 10 9 8 8 9 9 8 9
13 13 14 16 16 16 15 13 13 14 16 17 17 17 17 17 17 18 18 17 18 18 18 17 15 15 15 16 15 15 14 14 14 14 15 14 11 12 11 10 9 9 11 10 9 10 9 9 9 10 10 10 11 11 11 11 10 10 8 8 8 9 8
12 13 13 14 15 14 14 15 16 16 16 16 17 17 16 17 17 17 17 18 17 17 16 16 15 16 16 15 15 15 16 15 14 15 15 14 12 13 12 11 11 11 9 10 11 11 9 11 9 10 11 11 11 11 11 10 10 10 10 8 8 8 8
13 14 14 16 16 14 13 12 16 18 18 18 19 18 17 17 17 17 16 17 17 16 16 16 15 15 16 16 15 15 16 15 15 14 14 14 14 12 12 12 11 11 11 11 11 10 10 10 11 10 11 12 11 11 11 10 10 10 10 10 10 10 10
13 14 15 14 13 14 15 17 17 18 18 18 18 17 15 16 17 17 17 17 16 15 15 13 15 15 15 15 15 15 16 15 15 14 14 13 13 13 13 13 13 12 12 11 11 10 11 10 11 10 10 11 11 11 9 10 9 10 10 10 11 10 10
14 17 15 15 15 16 17 17 16 17 18 18 17 17 17 15 14 13 13 13 14 15 16 15 15 16 16 15 15 15 15 14 13 12 12 13 12 13 13 13 12 12 11 11 11 10 10 11 11 11 11 11 10 10 10 10 11 10 10 11 12 10 10
15 17 17 17 17 18 17 18 18 17 18 16 17 18 16 15 15 16 17 17 17 16 16 15 15 15 15 16 16 14 14 13 12 12 12 12 13 13 13 13 12 12 12 12 12 11 10 10 11 11 12 12 11 11 9 10 9 12 17 15 11 10 9
14 15 15 16 17 17 17 17 16 15 16 17 18 18 17 17 17 17 17 16 16 16 16 16 15 16 16 16 15 14 13 12 13 12 13 13 13 12 13 13 11 11 12 12 12 12 11 11 12 12 12 12 11 10 10 10 10 16 16 17 17 12 10
14 14 14 15 16 16 16 16 15 16 18 18 19 18 17 15 15 15 16 16 17 16 15 15 15 16 15 15 13 13 14 13 13 13 13 13 14 13 12 12 12 12 12 12 12 12 11 12 13 13 12 11 11 11 10 11 14 16 16 17 18 15 12
13 13 15 16 16 16 17 17 18 19 19 18 18 18 18 18 17 17 17 17 16 14 15 16 16 15 14 14 14 14 13 13 13 14 13 14 14 13 12 13 12 13 12 13 13 12 13 13 13 13 13 13 13 13 13 11 14 17 18 17 18 18 14
7 10 13 15 17 18 17 15 15 17 19 20 20 21 18 18 19 17 14 13 12 14 14 14 14 14 14 13 13 13 13 13 14 14 14 14 13 13 13 13 14 14 13 12 12 12 13 14 14 13 13 13 13 13 12 13 15 17 18 18 18 18 15
5 8 9 11 13 14 14 16 16 15 14 15 16 13 12 12 9 9 11 13 14 13 14 14 14 13 13 14 13 13 14 14 14 15 14 14 14 13 14 14 13 14 13 12 12 13 14 14 13 13 13 14 13 12 12 11 17 16 18 18 18 18 15
6 7 9 10 12 12 13 14 15 17 17 13 12 12 13 13 12 14 13 13 13 13 13 13 14 14 13 14 14 15 14 14 14 14 14 14 14 14 14 14 14 14 13 12 12 12 11 11 12 13 14 14 13 12 14 13 17 17 17 18 17 17 10
5 6 6 4 5 5 5 7 9 9 9 11 14 13 12 12 12 12 12 12 12 12 13 13 14 14 14 14 14 14 14 15 15 15 15 14 14 14 15 14 14 13 11 12 12 11 11 13 11 11 12 13 13 15 15 14 15 17 18 17 18 13 9
7 1 8 8 8 9 8 8 9 9 11 11 11 11 10 12 13 12 12 12 12 13 13 14 14 13 13 14 14 15 15 15 16 15 15 14 15 15 15 15 13 13 12 13 12 12 12 11 11 12 12 14 14 14 12 12 14 17 17 18 18 16 11
9 7 3 10 13 11 11 11 12 12 12 11 11 9 11 12 13 13 12 12 13 14 14 14 14 14 14 15 15 15 15 15 15 15 15 14 15 15 15 15 14 14 12 11 11 12 10 11 10 10 11 12 12 15 16 13 13 16 17 18 19 17 11
12 11 10 8 7 11 11 11 12 12 13 14 13 12 13 13 12 12 11 12 12 13 14 14 14 14 14 13 14 13 13 13 14 14 14 15 15 14 14 13 10 9 10 11 10 11 10 11 10 11 10 10 12 11 12 13 13 12 18 18 19 21 13
12 12 12 11 9 7 10 8 11 11 11 11 12 13 14 14 13 13 11 11 11 13 11 9 9 10 12 11 11 11 12 12 13 15 14 14 14 14 13 11 12 11 12 11 10 11 11 11 10 11 12 10 11 11 11 11 13 12 17 19 20 21 18
15 15 15 13 13 11 10 11 11 11 10 7 9 9 9 10 10 9 9 9 8 7 5 6 8 8 9 10 11 12 12 12 12 13 12 12 11 10 11 11 12 11 12 10 10 12 12 11 11 10 11 10 10 11 12 12 15 11 14 19 20 21 23
16 15 14 14 14 12 10 12 12 11 10 8 10 9 11 13 12 10 9 9 6 5 5 6 6 7 9 10 11 11 11 11 13 12 11 11 12 13 13 11 11 11 11 11 11 11 12 12 11 10 10 9 9 9 10 10 10 16 13 17 21 22 22
16 16 13 13 12 10 10 13 11 11 10 10 10 9 11 14 13 11 11 8 4 4 5 5 6 8 9 9 11 11 11 12 12 12 12 13 12 12 13 11 11 11 10 11 11 10 11 10 10 9 10 10 10 9 9 9 9 11 17 14 20 20 22
15 15 14 11 11 10 10 11 12 10 11 11 11 10 9 11 14 11 11 5 4 5 6 6 6 6 7 8 9 10 11 11 11 12 12 12 12 12 12 12 11 10 10 10 10 10 10 10 10 10 10 10 10 10 9 8 8 8 12 17 17 20 20
16 16 14 11 11 11 9 9 10 11 10 11 11 11 9 9 11 13 7 5 5 5 7 7 7 6 6 6 6 7 7 8 9 9 10 11 10 11 11 12 11 11 10 10 11 10 10 10 9 10 10 9 9 9 9 7 7 7 7 9 12 13 17
14 14 14 14 11 8 9 9 9 9 9 11 9 9 8 10 9 8 6 5 4 5 6 7 7 7 6 5 5 6 7 8 8 8 8 9 9 9 9 9 9 10 10 10 10 10 10 10 9 8 8 9 9 9 8 8 7 6 6 6 7 7 9
13 13 13 12 11 10 8 9 8 7 8 8 7 7 8 8 7 6 6 5 5 5 6 7 6 5 4 4 3 4 5 7 9 9 8 9 9 9 8 8 8 9 11 11 11 11 11 10 10 10 10 9 9 8 7 7 6 6 6 7 8 8 7
11 11 10 12 11 10 7 5 6 5 6 6 5 6 7 7 6 6 7 6 6 6 8 6 6 5 5 4 2 3 4 5 5 6 7 7 5 2 2 1 5 7 7 6 6 9 10 10 9 8 8 8 9 9 8 7 6 10 11 11 12 10 8
8 10 11 10 8 9 9 8 5 5 4 4 4 5 6 6 6 5 5 5 5 6 7 6 5 5 4 3 2 1 2 3 4 4 5 5 6 5 4 8 6 4 1 3 5 6 3 3 8 8 7 7 7 6 9 9 9 4 10 10 12 12 12
9 9 9 9 9 11 10 8 7 5 4 3 3 4 4 5 4 4 3 3 4 5 6 5 5 4 3 2 2 2 2 3 3 3 4 4 5 5 6 5 7 12 10 5 4 5 6 5 3 2 8 10 7 1 7 4 4 11 14 13 13 12 11
10 6 6 7 7 8 9 11 10 7 6 3 2 3 3 3 2 2 2 3 4 5 5 5 5 5 3 2 2 2 2 4 5 5 5 5 5 6 7 6 6 5 10 11 8 9 9 7 5 2 4 9 9 9 2 4 5 9 10 10 11 11 11
Wind_Direction
198 199 200 197 194 194 195 196 196 194 192 190 189 189 190 190 189 186 189 188 192 192 191 190 191 191 193 197 198 196 197 192 190 193 193 196 197 193 193 194 195 197 193 195 199 198 200 186 195 202 201 204 208 208 208 206 204 198 195 200 200 203 214
200 203 201 197 197 199 200 197 195 193 192 190 189 189 191 191 189 190 191 190 191 191 189 191 192 193 194 197 196 196 195 194 192 194 193 194 193 196 193 193 196 197 197 202 195 196 183 192 192 196 202 202 208 205 206 209 209 199 192 195 201 207 210
197 197 198 196 198 200 200 196 193 194 193 191 188 189 192 191 190 189 187 189 191 192 190 191 192 193 194 195 193 196 196 194 193 193 194 195 196 195 191 190 196 198 202 196 188 188 185 185 195 198 199 203 205 202 204 208 212 206 198 189 200 206 205
196 193 194 195 197 199 197 193 194 194 194 192 191 191 190 190 189 188 188 188 189 190 191 193 192 193 193 193 195 196 196 195 195 195 198 198 198 193 185 190 194 195 192 198 196 187 185 185 189 197 200 205 209 204 200 207 208 208 203 190 200 206 211
200 194 193 194 199 199 195 194 197 195 196 197 195 190 188 186 184 186 190 190 190 191 192 190 191 193 194 193 195 195 195 193 195 198 199 199 195 188 194 196 195 198 204 194 188 188 184 185 190 194 201 205 208 205 207 206 209 208 207 199 203 199 211
200 192 192 195 198 198 195 195 195 194 195 194 192 189 187 184 184 187 188 187 192 193 190 188 190 191 193 194 193 194 192 195 196 197 197 195 190 192 200 202 197 199 195 197 187 194 190 190 193 195 198 201 204 206 207 205 211 206 210 203 213 204 205
198 194 194 196 199 197 196 197 197 196 194 195 191 183 178 182 187 188 185 189 189 188 190 191 191 189 193 189 193 191 192 193 194 197 196 194 193 198 203 202 199 199 200 181 194 188 193 197 197 198 202 202 205 208 210 212 211 206 205 209 218 217 212
199 195 198 199 199 197 199 199 197 194 191 184 177 180 184 187 185 185 188 189 187 188 190 189 188 190 189 189 191 193 193 193 193 193 192 195 196 201 201 201 199 196 183 193 198 189 196 200 199 200 201 202 207 209 212 213 213 203 199 208 216 221 208
202 197 198 201 199 198 198 198 196 188 181 179 183 186 187 184 186 188 188 185 187 188 191 189 189 187 187 188 190 193 193 191 191 190 193 196 198 200 199 197 197 187 192 199 197 196 199 201 202 201 202 205 207 208 212 213 213 208 205 212 215 217 214
208 204 206 205 201 199 198 195 189 179 179 184 186 185 184 187 188 186 185 187 186 190 190 188 186 186 185 187 191 192 190 191 191 191 194 196 199 200 199 194 193 189 197 199 194 196 202 202 203 203 203 207 208 208 212 212 213 211 208 213 213 216 218
214 211 206 201 198 199 194 184 177 181 183 185 185 186 186 184 184 185 187 185 187 190 187 186 184 183 186 187 188 189 192 193 192 195 196 199 198 200 196 195 191 192 198 196 200 202 198 203 201 204 205 209 211 210 211 213 211 212 212 214 214 217 218
217 209 207 204 201 194 185 182 182 182 183 185 186 185 183 184 185 185 185 187 186 184 183 186 184 185 184 186 188 191 192 194 194 197 198 198 199 199 198 197 198 197 198 197 202 203 201 202 200 205 209 213 214 212 214 212 211 213 214 210 211 216 219
206 204 205 202 196 192 185 179 183 185 185 185 185 185 183 184 184 183 183 184 184 183 182 182 182 183 186 187 190 190 193 194 196 196 197 198 200 199 198 199 198 196 199 198 203 202 204 204 205 209 211 216 214 215 214 213 213 214 214 215 215 218 219
211 211 204 198 191 183 182 186 186 186 185 184 185 183 183 184 183 182 181 182 181 179 179 181 182 184 186 187 191 192 195 196 195 196 196 197 197 198 199 200 201 202 203 199 203 205 208 206 209 211 213 218 216 217 212 212 213 214 214 215 216 217 220
203 203 201 191 186 183 186 184 186 186 183 184 180 179 179 180 180 179 179 178 179 179 182 179 180 184 186 188 192 195 195 194 195 196 196 197 197 199 200 201 201 201 202 202 206 209 210 211 212 215 218 221 219 218 212 213 216 215 212 215 217 217 221
201 197 193 189 186 186 186 186 184 183 181 177 177 179 178 177 177 179 179 180 180 182 180 174 182 183 186 190 194 194 192 191 192 193 194 195 197 200 201 201 201 201 202 204 207 209 209 211 214 217 219 221 220 218 215 217 220 218 212 210 214 214 220
196 193 192 188 184 184 185 184 182 176 174 177 179 179 179 180 180 179 180 179 179 181 179 177 180 183 186 192 193 190 188 188 192 190 194 196 198 200 202 203 200 201 203 206 206 207 207 209 214 217 219 220 220 217 217 220 223 219 211 213 213 213 216
193 188 186 187 185 183 181 179 172 173 178 180 181 180 180 179 176 174 181 180 181 180 174 177 180 184 188 191 187 186 187 190 189 192 196 195 200 200 201 201 201 204 206 206 206 208 207 211 214 216 219 221 221 221 219 223 223 215 212 211 211 211 218
196 189 185 183 182 181 180 178 177 178 180 179 180 182 183 177 174 182 182 180 179 169 173 179 181 183 187 188 186 187 187 187 189 194 196 198 199 199 198 200 203 206 207 209 209 208 208 213 213 216 218 221 223 224 223 226 220 213 212 210 207 208 211
207 201 191 185 182 180 181 179 179 181 179 179 182 184 179 176 183 183 175 167 161 171 173 175 179 182 186 185 186 187 186 188 191 195 198 198 198 199 199 200 204 206 207 209 209 211 214 215 216 217 217 220 223 226 228 227 224 211 211 209 206 204 202
204 189 198 192 186 183 177 176 177 177 178 184 182 173 166 174 158 134 150 163 170 171 170 174 177 180 183 185 186 186 189 190 193 197 198 199 199 199 202 202 206 207 207 207 207 209 214 215 215 218 218 220 221 224 229 229 223 213 210 208 203 201 198
203 181 188 193 187 181 175 176 174 174 181 171 158 165 171 167 160 162 167 167 166 168 171 173 178 184 183 186 188 189 190 189 194 198 198 199 199 200 203 205 206 207 206 208 212 215 215 217 218 219 220 220 221 224 231 232 220 214 212 206 203 195 197
276 185 162 160 164 173 164 160 162 158 141 152 164 164 165 156 158 157 155 162 166 168 171 174 181 185 184 187 189 190 190 191 195 198 199 198 198 201 204 206 208 210 205 209 211 211 211 217 213 217 219 219 219 224 230 235 221 211 210 205 196 187 202
6 87 132 121 118 119 121 120 118 129 139 143 153 155 150 152 153 153 159 165 165 169 176 179 187 185 183 189 190 193 191 194 195 198 198 196 199 202 206 208 208 208 203 205 208 211 212 210 217 217 217 219 221 220 226 232 223 208 208 202 192 191 196
20 27 71 135 136 134 134 135 135 133 131 136 140 147 145 149 151 155 161 166 170 174 179 187 188 185 187 192 193 193 193 195 196 199 197 197 203 204 206 206 207 207 200 205 210 216 214 215 217 218 218 218 221 222 223 232 226 206 205 201 194 196 209
25 33 44 46 89 126 130 129 125 134 144 154 157 150 148 149 154 160 163 170 169 176 186 191 191 190 193 193 193 194 194 195 197 199 197 201 205 205 208 208 206 201 197 206 207 213 213 213 214 217 218 215 218 219 220 226 229 208 201 198 197 196 202
35 41 43 49 51 72 99 107 124 139 148 153 152 154 155 157 161 167 166 163 170 185 187 184 183 187 195 196 194 194 195 197 199 200 202 204 205 205 207 204 206 203 202 205 205 212 215 213 214 218 224 218 218 222 221 221 224 216 194 200 197 199 199
39 44 45 48 52 59 80 89 92 93 88 107 130 135 137 136 133 131 133 141 152 154 148 151 172 181 190 194 197 197 196 197 201 203 205 206 203 203 209 209 208 205 204 205 206 209 214 214 217 220 224 222 220 221 225 221 214 219 198 197 199 199 201
27 33 36 39 42 36 63 77 77 78 88 94 106 116 119 114 112 114 115 112 130 148 144 150 149 168 180 191 199 203 200 197 197 199 202 204 201 202 208 206 205 205 202 203 205 208 213 214 213 217 223 226 224 223 224 222 214 209 206 199 199 201 203
22 26 28 38 44 39 43 71 69 73 72 78 85 99 112 115 114 113 106 113 162 141 142 141 151 157 172 185 196 201 205 204 201 200 202 203 200 202 207 204 203 203 201 201 203 205 211 213 211 213 220 224 227 224 224 219 217 206 206 200 200 203 204
20 22 21 19 27 35 42 56 65 66 68 67 76 78 85 102 109 102 103 137 143 144 131 131 123 141 168 184 191 196 202 203 206 207 205 203 196 199 205 207 199 201 202 198 202 205 208 212 205 209 215 220 225 227 224 219 213 213 205 205 200 204 205
15 12 8 10 19 20 41 49 58 62 66 66 66 74 76 76 91 97 114 136 132 138 126 125 120 117 144 163 181 193 190 198 210 212 213 210 201 202 203 203 199 203 201 197 203 204 206 210 206 210 212 217 223 226 227 214 210 213 201 199 208 208 211
9 8 10 8 1 7 33 47 52 56 59 68 58 72 73 80 78 95 119 116 117 108 110 98 102 112 120 149 172 176 180 193 199 202 207 211 211 209 204 200 200 203 202 199 201 202 206 207 206 208 206 214 219 223 222 217 205 202 196 177 191 199 203
6 1 0 3 2 10 27 44 47 51 64 72 69 74 80 83 88 95 93 86 83 85 82 76 74 77 78 109 153 170 177 189 198 193 200 203 204 206 206 204 200 199 201 198 197 199 203 202 204 206 204 208 211 215 217 216 204 193 196 188 188 197 190
359 358 356 4 1 8 12 24 49 46 61 69 73 78 80 83 83 80 77 73 69 72 74 74 67 58 43 34 105 159 183 186 189 188 189 189 150 47 28 305 230 216 211 200 204 204 200 202 206 204 206 205 205 202 213 214 208 218 202 198 190 183 175
359 357 354 354 359 9 8 3 13 48 42 33 35 66 71 67 63 58 69 79 86 86 86 93 91 79 49 18 14 40 177 171 186 171 164 149 142 134 86 61 82 44 317 158 10 21 360 196 204 203 194 200 206 194 204 211 221 177 175 189 184 191 188
353 355 351 348 359 2 0 1 355 10 35 8 17 53 59 60 56 57 51 65 86 96 101 105 99 104 105 56 11 354 146 150 131 130 126 138 140 144 139 126 53 49 50 54 60 65 68 84 80 158 189 182 188 115 43 32 134 159 174 172 176 173 161
341 346 337 349 359 356 360 355 349 345 339 339 41 79 76 78 31 155 160 155 157 139 120 111 100 94 83 36 6 32 90 118 133 136 137 145 147 153 160 146 119 66 38 43 57 70 70 65 68 106 192 206 175 148 59 50 94 132 139 142 138 137 131